Wind_Speed
34 33 34 36 38 40 43 44 43 40 42 40 39 37 36 36 38 40 41 42 42 43 43 42 42 42 41 41 40 40 39 39 38 37 36 36 35 35 34 35 34 34 34 34
32 33 33 34 35 38 40 42 44 42 41 41 40 39 36 35 36 38 39 40 40 41 41 41 40 40 39 39 38 38 37 37 36 35 35 34 34 34 34 34 33 33 33 33
31 33 33 34 35 35 37 40 42 44 42 42 40 38 37 36 36 37 39 39 39 39 39 39 39 38 38 37 37 36 35 35 34 34 33 33 33 33 33 32 32 32 32 32
31 32 33 31 34 35 36 38 41 44 44 42 40 40 39 39 38 38 39 40 39 39 39 39 39 38 37 37 36 35 34 34 33 33 32 32 32 32 32 31 31 31 31 31
29 31 32 30 32 35 36 38 41 43 44 44 41 42 42 40 40 41 41 41 40 39 39 39 38 38 37 36 35 34 33 33 32 32 31 31 31 31 30 30 30 30 30 30
28 29 30 30 30 33 36 38 40 42 43 44 43 44 42 42 42 41 41 41 40 39 39 39 38 37 36 35 34 33 32 32 31 31 30 30 30 30 30 30 30 30 30 30
28 30 30 29 30 33 35 37 39 41 42 43 44 43 42 43 44 42 41 42 41 40 39 38 37 35 34 33 33 32 32 31 30 30 29 29 29 29 29 29 29 29 29 30
28 31 31 30 31 33 33 36 37 39 41 42 43 43 44 44 44 43 42 42 42 41 39 37 35 35 34 33 33 32 31 30 30 29 29 29 29 28 28 28 28 29 29 30
28 29 31 33 32 34 35 35 37 38 40 41 42 43 44 44 43 43 43 43 42 41 39 37 36 35 34 34 33 31 31 30 29 29 28 28 28 28 28 28 28 29 29 29
29 29 31 34 34 35 37 36 36 37 39 40 40 41 42 43 43 43 43 42 41 40 39 38 36 34 34 33 32 31 31 30 29 28 28 27 27 27 27 28 28 28 29 29
29 29 32 34 35 36 38 38 36 36 38 39 38 39 41 41 42 41 41 41 40 39 38 37 36 34 33 32 31 31 30 30 29 28 28 28 27 27 27 28 27 28 29 30
30 30 34 35 36 37 39 40 38 37 37 38 38 38 39 38 39 39 39 40 40 39 38 37 36 35 34 32 32 31 30 29 29 28 28 27 27 27 28 28 28 28 29 30
30 33 35 36 37 37 38 39 39 39 38 37 36 37 37 37 38 38 37 37 38 38 38 37 36 35 34 32 31 30 30 29 29 28 27 27 27 28 28 28 28 29 29 30
31 33 35 36 37 38 38 39 39 38 39 38 35 35 36 37 38 38 38 37 37 37 37 37 36 34 33 32 31 30 30 29 28 28 27 27 27 28 28 28 28 29 29 30
31 34 35 36 37 37 37 38 39 39 40 39 37 36 36 36 37 38 38 37 37 37 37 36 34 33 32 32 31 31 30 29 29 28 27 27 27 27 27 28 28 29 29 30
31 33 35 36 36 37 37 37 38 39 39 39 38 37 36 36 36 36 36 36 36 36 36 34 32 32 32 31 31 30 29 29 29 28 27 27 27 27 27 27 28 28 29 30
31 33 35 36 36 37 37 37 38 39 39 38 38 37 36 36 35 35 35 35 34 35 34 33 32 32 31 31 30 29 28 28 28 27 27 27 27 27 27 27 28 28 29 30
30 33 35 36 35 36 37 37 38 38 38 38 38 38 37 36 35 35 35 34 34 34 34 33 32 31 30 30 29 28 27 27 27 27 27 26 26 26 27 27 27 28 29 29
28 32 34 36 37 37 37 37 38 38 37 38 39 39 37 36 36 35 35 34 33 33 32 31 31 30 29 28 27 26 26 26 26 26 25 25 25 26 26 26 26 27 29 30
29 32 34 36 38 38 38 37 37 37 38 38 38 39 38 36 36 35 34 33 32 31 30 29 29 29 29 28 26 26 25 25 24 24 24 24 24 25 25 26 26 28 30 31
29 32 35 36 37 38 39 39 38 38 38 38 39 39 38 36 35 35 34 32 32 30 29 28 28 28 27 26 25 24 24 23 23 23 23 23 24 24 25 26 27 29 30 31
29 32 35 37 38 39 39 38 38 40 40 39 39 39 37 36 34 34 34 32 31 30 28 27 27 26 25 24 23 23 23 22 22 23 23 23 24 24 25 26 28 29 30 31
29 33 36 38 39 39 38 37 37 38 39 39 39 38 37 36 34 33 33 32 31 30 29 28 26 25 24 23 23 22 22 21 21 22 23 23 24 24 26 27 28 29 30 32
28 32 35 36 37 38 37 37 37 38 38 38 38 38 38 37 35 34 32 30 29 29 27 26 25 24 23 22 22 21 21 21 21 22 22 23 23 25 26 27 28 30 31 33
26 30 34 36 36 36 36 36 36 37 37 38 37 37 37 37 36 34 33 31 29 28 26 25 24 24 23 22 22 22 22 22 22 22 22 23 24 25 27 28 29 31 33 34
28 31 34 36 36 36 36 36 36 37 37 36 37 37 36 36 35 33 32 30 29 27 26 25 24 23 23 22 22 22 22 22 22 23 23 24 25 27 28 29 30 32 33 35
29 32 34 36 37 37 36 37 38 37 37 35 34 35 35 35 34 33 31 29 28 26 25 24 23 23 22 22 22 23 23 23 23 24 24 25 26 28 29 30 31 33 35 36
Wind_Direction
227 223 220 221 221 222 222 221 220 216 218 217 218 217 216 216 216 216 216 217 218 220 222 225 227 229 231 232 234 236 239 241 243 246 248 250 251 254 257 260 263 265 267 269
226 224 222 221 220 220 220 220 219 217 216 214 217 216 214 212 212 212 213 214 216 217 220 222 225 227 229 231 233 235 238 240 242 244 246 248 251 254 257 260 262 264 267 269
225 223 222 222 220 218 217 218 218 217 214 214 214 214 213 211 210 210 210 212 214 216 219 221 224 226 228 231 233 235 237 238 241 243 246 248 250 253 256 259 262 264 266 269
227 226 226 221 220 220 218 215 216 216 216 215 213 212 211 211 210 209 210 212 213 216 219 221 224 226 228 230 232 234 236 238 239 242 244 247 250 254 257 259 262 264 266 269
229 227 225 221 219 219 219 217 215 215 215 215 211 210 209 207 208 208 210 212 214 216 218 220 223 225 227 229 231 233 235 237 239 241 244 247 250 253 256 259 261 264 267 270
227 225 222 218 218 218 219 218 215 215 215 215 213 211 209 208 207 208 209 212 214 216 218 220 221 223 225 227 230 232 235 238 240 242 244 247 250 253 255 258 261 265 268 271
229 225 219 214 216 217 219 216 216 215 216 216 216 212 209 210 209 209 210 212 214 217 220 221 222 224 225 227 230 233 236 238 241 243 245 248 250 252 256 259 262 266 270 273
229 224 219 215 215 216 217 218 218 216 216 217 216 212 210 211 211 210 211 212 214 218 220 222 222 224 225 228 230 233 236 238 241 243 246 249 251 254 257 261 264 268 272 275
225 222 218 218 217 215 215 217 217 217 216 217 215 212 211 211 212 211 211 214 215 217 219 221 223 224 226 228 231 233 236 239 242 245 248 250 253 256 259 263 267 271 274 277
223 219 218 216 216 215 214 215 215 215 215 214 213 212 211 211 212 211 209 212 215 216 218 221 223 225 226 228 231 234 237 240 243 246 248 251 254 258 262 266 270 273 275 278
224 217 216 217 215 214 215 215 214 212 212 211 211 210 210 211 213 212 210 212 214 215 218 220 222 224 225 228 231 235 238 241 244 246 249 252 255 260 264 268 271 274 277 280
223 217 216 215 215 213 213 213 212 210 209 210 210 209 209 209 210 212 212 211 212 213 216 218 221 223 225 228 232 235 238 242 244 247 250 253 258 262 265 268 272 275 278 281
223 217 215 212 212 212 211 211 210 208 207 208 208 208 209 209 210 211 211 211 211 213 216 218 220 223 225 229 232 235 238 241 243 246 250 255 260 264 267 270 273 276 279 281
223 218 213 210 209 209 209 209 208 206 205 206 206 207 207 207 208 210 210 210 212 214 216 218 220 222 226 229 232 234 237 240 243 247 252 257 261 264 267 271 275 277 280 282
223 218 213 210 207 206 207 208 206 205 204 204 205 205 203 204 206 208 210 211 212 213 214 216 218 222 226 228 231 234 237 241 245 249 253 258 262 265 268 272 275 278 280 283
221 216 212 208 206 206 207 206 204 202 202 202 204 204 203 203 204 206 207 209 210 212 213 216 218 221 225 227 230 234 238 241 245 250 255 259 263 266 269 273 276 279 282 286
220 215 211 208 205 206 206 204 201 200 201 200 202 203 203 203 204 205 206 207 208 209 211 214 217 221 225 228 231 234 238 241 246 250 255 259 263 267 271 274 278 281 285 288
221 215 210 207 204 203 203 202 200 199 199 200 200 201 202 201 201 203 204 206 208 209 211 213 217 221 225 228 231 235 239 243 247 252 255 259 263 268 272 276 280 283 287 290
219 215 210 205 201 200 201 202 201 199 198 198 199 200 199 198 198 200 201 203 206 209 211 215 219 221 223 227 231 236 239 243 248 253 257 262 266 270 274 278 282 286 289 291
217 212 208 205 202 200 200 199 199 198 196 197 200 200 199 198 198 198 199 202 204 208 211 215 217 220 223 226 230 235 239 244 249 255 260 264 268 272 276 279 283 288 291 293
214 209 207 205 202 200 198 198 198 197 195 197 199 198 197 197 196 197 199 202 204 206 209 212 215 219 222 225 229 235 239 245 251 257 261 265 270 274 277 281 286 289 292 295
209 205 203 201 200 198 195 195 196 196 195 197 198 197 197 198 199 199 198 200 203 205 208 212 215 218 221 225 230 235 241 248 254 259 263 267 271 275 280 284 288 291 294 298
205 202 199 198 197 195 192 192 193 194 193 194 196 196 197 198 198 199 200 202 204 207 209 212 215 220 224 229 234 239 245 250 256 262 266 269 273 278 283 287 290 293 297 300
202 200 197 195 193 191 189 189 191 192 192 193 194 195 195 196 197 198 200 203 205 207 210 214 219 224 229 233 237 241 246 252 259 264 268 271 276 281 286 290 293 296 300 303
196 194 194 193 191 189 188 188 189 190 189 191 193 193 193 194 195 197 200 202 204 208 212 217 221 226 230 234 240 245 250 255 260 265 270 275 281 286 289 292 295 298 301 304
195 192 191 190 189 188 187 187 188 189 188 189 192 192 192 192 193 196 199 203 205 209 213 218 222 226 231 237 243 248 251 257 263 267 273 279 284 287 290 293 296 300 303 305
194 191 189 188 187 186 186 186 186 185 186 186 189 191 192 193 194 196 200 203 206 210 214 219 224 229 235 241 246 249 253 260 266 271 276 280 285 288 291 294 297 301 304 306
Height
5472 5477 5482 5488 5495 5501 5507 5516 5525 5535 5541 5550 5556 5562 5569 5575 5582 5589 5596 5603 5610 5618 5624 5631 5637 5643 5649 5654 5659 5664 5668 5672 5676 5679 5682 5684 5686 5687 5689 5690 5690 5690 5690 5690
5467 5470 5475 5481 5487 5494 5501 5509 5517 5525 5533 5541 5546 5553 5560 5567 5574 5581 5588 5596 5603 5609 5616 5622 5629 5635 5640 5646 5651 5655 5659 5664 5667 5670 5673 5675 5677 5679 5680 5681 5682 5682 5682 5681
5460 5463 5468 5475 5481 5487 5494 5502 5510 5517 5527 5531 5538 5546 5553 5560 5567 5574 5581 5588 5595 5602 5608 5615 5621 5627 5632 5637 5642 5647 5651 5655 5659 5662 5665 5667 5669 5670 5672 5673 5673 5674 5674 5673
5453 5458 5463 5472 5475 5480 5487 5495 5502 5508 5515 5523 5531 5538 5545 5552 5560 5567 5574 5581 5587 5594 5601 5607 5613 5619 5624 5629 5634 5639 5643 5647 5650 5653 5656 5658 5660 5662 5664 5664 5665 5665 5665 5665
5447 5451 5456 5463 5468 5474 5480 5486 5492 5499 5507 5514 5522 5529 5537 5544 5552 5559 5566 5573 5580 5587 5593 5599 5605 5611 5617 5622 5627 5631 5635 5639 5642 5645 5648 5650 5652 5654 5655 5656 5657 5657 5657 5657
5440 5444 5450 5458 5462 5466 5473 5478 5484 5491 5498 5506 5513 5521 5531 5538 5545 5552 5559 5566 5573 5580 5586 5592 5598 5604 5610 5615 5619 5624 5628 5631 5634 5638 5640 5643 5645 5646 5647 5648 5649 5649 5649 5649
5433 5436 5443 5451 5455 5459 5466 5472 5477 5483 5490 5497 5505 5515 5525 5530 5538 5545 5552 5559 5566 5573 5579 5585 5592 5597 5603 5608 5612 5616 5620 5624 5627 5630 5633 5635 5637 5638 5640 5641 5641 5641 5641 5641
5426 5430 5439 5443 5446 5452 5457 5463 5469 5475 5482 5490 5498 5507 5515 5523 5530 5538 5545 5552 5558 5566 5572 5579 5585 5591 5596 5601 5605 5609 5613 5617 5620 5623 5625 5627 5629 5631 5632 5633 5633 5633 5633 5632
5419 5425 5429 5433 5438 5443 5449 5455 5461 5468 5475 5483 5491 5499 5508 5516 5523 5531 5538 5545 5552 5558 5566 5572 5578 5584 5589 5594 5598 5602 5606 5609 5613 5615 5618 5620 5622 5623 5624 5625 5625 5625 5625 5624
5411 5417 5421 5425 5430 5435 5442 5448 5454 5461 5468 5476 5483 5492 5500 5508 5516 5524 5531 5538 5545 5552 5559 5565 5571 5577 5582 5587 5592 5596 5599 5603 5606 5608 5610 5613 5614 5616 5617 5617 5617 5617 5617 5616
5403 5409 5413 5418 5422 5428 5434 5441 5447 5454 5461 5469 5477 5485 5493 5501 5510 5517 5524 5531 5538 5545 5552 5558 5564 5570 5576 5580 5585 5589 5592 5596 5598 5601 5603 5605 5607 5608 5609 5609 5610 5609 5609 5607
5396 5401 5404 5409 5414 5420 5426 5434 5441 5448 5455 5463 5471 5479 5487 5495 5503 5510 5518 5525 5531 5538 5545 5552 5558 5563 5569 5574 5578 5582 5585 5589 5591 5594 5596 5598 5599 5600 5601 5601 5601 5601 5600 5599
5387 5391 5395 5401 5407 5413 5420 5427 5434 5442 5450 5457 5465 5473 5481 5488 5496 5504 5511 5518 5525 5532 5539 5545 5551 5557 5562 5567 5571 5575 5579 5582 5584 5587 5589 5590 5592 5593 5593 5593 5593 5592 5591 5590
5379 5383 5388 5394 5400 5406 5413 5421 5428 5436 5444 5452 5460 5467 5475 5482 5490 5497 5505 5512 5519 5526 5532 5538 5544 5550 5555 5560 5564 5568 5571 5574 5577 5579 5581 5583 5584 5585 5585 5585 5585 5584 5582 5581
5371 5375 5381 5386 5393 5400 5407 5414 5422 5430 5438 5446 5454 5462 5469 5476 5484 5491 5498 5505 5512 5519 5526 5532 5538 5543 5548 5553 5557 5561 5564 5567 5570 5572 5574 5575 5576 5577 5577 5577 5576 5575 5574 5572
5364 5368 5374 5381 5388 5395 5401 5409 5417 5425 5432 5441 5448 5456 5463 5471 5478 5485 5492 5499 5506 5513 5519 5525 5531 5536 5541 5546 5550 5554 5557 5560 5562 5564 5566 5567 5568 5569 5569 5569 5568 5567 5565 5564
5358 5363 5369 5376 5383 5390 5396 5404 5411 5419 5427 5435 5443 5450 5457 5465 5472 5479 5486 5493 5500 5506 5513 5519 5524 5530 5534 5539 5543 5547 5550 5552 5555 5557 5559 5560 5561 5561 5561 5560 5560 5558 5557 5555
5353 5358 5363 5370 5377 5384 5391 5399 5407 5415 5422 5430 5437 5445 5452 5460 5467 5474 5481 5488 5494 5500 5506 5512 5518 5523 5528 5532 5536 5540 5543 5545 5548 5550 5551 5552 5553 5553 5553 5552 5551 5550 5548 5546
5347 5352 5358 5365 5372 5379 5387 5394 5402 5410 5417 5425 5433 5440 5447 5455 5461 5469 5476 5482 5489 5495 5501 5507 5512 5517 5522 5526 5530 5533 5536 5538 5540 5542 5543 5544 5545 5545 5545 5544 5543 5542 5540 5538
5342 5347 5353 5359 5366 5374 5382 5390 5398 5405 5413 5420 5428 5436 5443 5450 5457 5464 5471 5478 5484 5490 5496 5501 5506 5511 5515 5519 5523 5526 5529 5531 5533 5535 5536 5537 5537 5537 5537 5536 5535 5533 5531 5529
5336 5342 5348 5354 5361 5369 5377 5385 5393 5401 5409 5416 5424 5431 5439 5446 5453 5460 5467 5473 5480 5485 5491 5496 5501 5505 5509 5513 5517 5520 5522 5524 5526 5528 5529 5529 5529 5529 5529 5528 5526 5525 5522 5520
5330 5336 5342 5349 5356 5364 5372 5381 5388 5396 5404 5412 5420 5427 5435 5442 5449 5456 5463 5469 5475 5481 5486 5491 5495 5500 5504 5507 5510 5513 5516 5518 5519 5520 5521 5522 5522 5521 5521 5519 5518 5516 5513 5510
5324 5330 5337 5344 5351 5359 5367 5376 5384 5392 5400 5408 5415 5423 5431 5438 5445 5452 5459 5465 5471 5476 5481 5486 5490 5494 5498 5501 5504 5507 5509 5511 5512 5513 5514 5514 5514 5513 5512 5511 5509 5507 5504 5501
5319 5325 5332 5339 5347 5355 5363 5372 5380 5387 5395 5403 5411 5419 5427 5434 5441 5448 5454 5460 5466 5471 5476 5481 5485 5489 5492 5495 5498 5500 5502 5504 5505 5506 5506 5506 5506 5505 5504 5502 5500 5498 5495 5492
5316 5322 5328 5336 5344 5352 5360 5368 5375 5384 5392 5400 5407 5415 5423 5430 5437 5444 5450 5456 5461 5467 5471 5475 5479 5483 5486 5489 5492 5494 5496 5497 5498 5499 5499 5499 5498 5497 5495 5493 5491 5489 5486 5482
5313 5319 5326 5333 5341 5349 5357 5365 5373 5381 5389 5397 5405 5412 5419 5426 5433 5440 5446 5451 5457 5462 5466 5470 5474 5477 5480 5483 5485 5487 5489 5490 5491 5491 5491 5491 5490 5488 5487 5485 5482 5480 5476 5473
5310 5316 5323 5331 5338 5346 5354 5362 5370 5379 5387 5395 5402 5409 5416 5423 5430 5436 5442 5447 5452 5457 5461 5465 5468 5471 5474 5476 5479 5480 5482 5483 5483 5483 5483 5482 5481 5480 5478 5476 5473 5470 5467 5463